Year,Month,Day,Hour,Minute,Value (Times are PST for temperature in C)
2012,06,21,00,00,15.20
2012,06,21,00,01,15.20
2012,06,21,00,02,15.20
2012,06,21,00,03,15.20
2012,06,21,00,04,15.20
2012,06,21,00,05,15.20
2012,06,21,00,06,15.20
2012,06,21,00,07,15.20
2012,06,21,00,08,15.10
2012,06,21,00,09,15.10
2012,06,21,00,10,15.10
2012,06,21,00,11,15.10
2012,06,21,00,12,15.10
2012,06,21,00,13,15.10
2012,06,21,00,14,15.10
2012,06,21,00,15,15.10
2012,06,21,00,16,15.10
2012,06,21,00,17,15.10
2012,06,21,00,18,15.10
2012,06,21,00,19,15.10
2012,06,21,00,20,15.10
2012,06,21,00,21,15.10
2012,06,21,00,22,15.10
2012,06,21,00,23,15.10
2012,06,21,00,24,15.10
2012,06,21,00,25,15.20
2012,06,21,00,26,15.20
2012,06,21,00,27,15.20
2012,06,21,00,28,15.30
2012,06,21,00,29,15.30
2012,06,21,00,30,15.30
2012,06,21,00,31,15.30
2012,06,21,00,32,15.40
2012,06,21,00,33,15.40
2012,06,21,00,34,15.40
2012,06,21,00,35,15.40
2012,06,21,00,36,15.50
2012,06,21,00,37,15.50
2012,06,21,00,38,15.50
2012,06,21,00,39,15.50
2012,06,21,00,40,15.50
2012,06,21,00,41,15.50
2012,06,21,00,42,15.50
2012,06,21,00,43,15.50
2012,06,21,00,44,15.50
2012,06,21,00,45,15.50
2012,06,21,00,46,15.50
2012,06,21,00,47,15.50
2012,06,21,00,48,15.40
2012,06,21,00,49,15.40
2012,06,21,00,50,15.40
2012,06,21,00,51,15.40
2012,06,21,00,52,15.40
2012,06,21,00,53,15.40
2012,06,21,00,54,15.40
2012,06,21,00,55,15.40
2012,06,21,00,56,15.40
2012,06,21,00,57,15.40
2012,06,21,00,58,15.30
2012,06,21,00,59,15.30
2012,06,21,01,00,15.30
2012,06,21,01,01,15.30
2012,06,21,01,02,15.30
2012,06,21,01,03,15.30
2012,06,21,01,04,15.30
2012,06,21,01,05,15.30
2012,06,21,01,06,15.30
2012,06,21,01,07,15.30
2012,06,21,01,08,15.30
2012,06,21,01,09,15.20
2012,06,21,01,10,15.20
2012,06,21,01,11,15.20
2012,06,21,01,12,15.20
2012,06,21,01,13,15.20
2012,06,21,01,14,15.10
2012,06,21,01,15,15.10
2012,06,21,01,16,15.10
2012,06,21,01,17,15.10
2012,06,21,01,18,15.10
2012,06,21,01,19,15.00
2012,06,21,01,20,15.00
2012,06,21,01,21,15.00
2012,06,21,01,22,15.00
2012,06,21,01,23,15.00
2012,06,21,01,24,15.00
2012,06,21,01,25,15.00
2012,06,21,01,26,14.90
2012,06,21,01,27,14.90
2012,06,21,01,28,14.90
2012,06,21,01,29,14.90
2012,06,21,01,30,14.80
2012,06,21,01,31,14.80
2012,06,21,01,32,14.80
2012,06,21,01,33,14.80
2012,06,21,01,34,14.80
2012,06,21,01,35,14.80
2012,06,21,01,36,14.80
2012,06,21,01,37,14.80
2012,06,21,01,38,14.70
2012,06,21,01,39,14.70
2012,06,21,01,40,14.70
2012,06,21,01,41,14.70
2012,06,21,01,42,14.70
2012,06,21,01,43,14.70
2012,06,21,01,44,14.70
2012,06,21,01,45,14.70
2012,06,21,01,46,14.70
2012,06,21,01,47,14.60
2012,06,21,01,48,14.60
2012,06,21,01,49,14.60
2012,06,21,01,50,14.60
2012,06,21,01,51,14.60
2012,06,21,01,52,14.60
2012,06,21,01,53,14.60
2012,06,21,01,54,14.60
2012,06,21,01,55,14.60
2012,06,21,01,56,14.70
2012,06,21,01,57,14.70
2012,06,21,01,58,14.70
2012,06,21,01,59,14.70
2012,06,21,02,00,14.70
2012,06,21,02,01,14.70
2012,06,21,02,02,14.70
2012,06,21,02,03,14.70
2012,06,21,02,04,14.70
2012,06,21,02,05,14.70
2012,06,21,02,06,14.60
2012,06,21,02,07,14.60
2012,06,21,02,08,14.60
2012,06,21,02,09,14.60
2012,06,21,02,10,14.50
2012,06,21,02,11,14.50
2012,06,21,02,12,14.50
2012,06,21,02,13,14.50
2012,06,21,02,14,14.50
2012,06,21,02,15,14.50
2012,06,21,02,16,14.50
2012,06,21,02,17,14.50
2012,06,21,02,18,14.40
2012,06,21,02,19,14.40
2012,06,21,02,20,14.40
2012,06,21,02,21,14.40
2012,06,21,02,22,14.40
2012,06,21,02,23,14.40
2012,06,21,02,24,14.40
2012,06,21,02,25,14.40
2012,06,21,02,26,14.40
2012,06,21,02,27,14.50
2012,06,21,02,28,14.50
2012,06,21,02,29,14.50
2012,06,21,02,30,14.60
2012,06,21,02,31,14.60
2012,06,21,02,32,14.60
2012,06,21,02,33,14.70
2012,06,21,02,34,14.70
2012,06,21,02,35,14.80
2012,06,21,02,36,14.80
2012,06,21,02,37,14.80
2012,06,21,02,38,14.80
2012,06,21,02,39,14.80
2012,06,21,02,40,14.80
2012,06,21,02,41,14.90
2012,06,21,02,42,14.90
2012,06,21,02,43,14.90
2012,06,21,02,44,14.90
2012,06,21,02,45,14.90
2012,06,21,02,46,14.80
2012,06,21,02,47,14.80
2012,06,21,02,48,14.80
2012,06,21,02,49,14.80
2012,06,21,02,50,14.80
2012,06,21,02,51,14.80
2012,06,21,02,52,14.80
2012,06,21,02,53,14.80
2012,06,21,02,54,14.80
2012,06,21,02,55,14.80
2012,06,21,02,56,14.70
2012,06,21,02,57,14.70
2012,06,21,02,58,14.70
2012,06,21,02,59,14.70
2012,06,21,03,00,14.70
2012,06,21,03,01,14.70
2012,06,21,03,02,14.60
2012,06,21,03,03,14.60
2012,06,21,03,04,14.60
2012,06,21,03,05,14.60
2012,06,21,03,06,14.60
2012,06,21,03,07,14.50
2012,06,21,03,08,14.50
2012,06,21,03,09,14.50
2012,06,21,03,10,14.50
2012,06,21,03,11,14.50
2012,06,21,03,12,14.40
2012,06,21,03,13,14.40
2012,06,21,03,14,14.40
2012,06,21,03,15,14.40
2012,06,21,03,16,14.30
2012,06,21,03,17,14.30
2012,06,21,03,18,14.30
2012,06,21,03,19,14.30
2012,06,21,03,20,14.20
2012,06,21,03,21,14.20
2012,06,21,03,22,14.20
2012,06,21,03,23,14.20
2012,06,21,03,24,14.20
2012,06,21,03,25,14.20
2012,06,21,03,26,14.20
2012,06,21,03,27,14.20
2012,06,21,03,28,14.10
2012,06,21,03,29,14.10
2012,06,21,03,30,14.10
2012,06,21,03,31,14.10
2012,06,21,03,32,14.10
2012,06,21,03,33,14.00
2012,06,21,03,34,14.00
2012,06,21,03,35,14.00
2012,06,21,03,36,14.00
2012,06,21,03,37,14.00
2012,06,21,03,38,14.00
2012,06,21,03,39,13.90
2012,06,21,03,40,13.90
2012,06,21,03,41,13.90
2012,06,21,03,42,13.90
2012,06,21,03,43,13.90
2012,06,21,03,44,13.90
2012,06,21,03,45,13.90
2012,06,21,03,46,13.90
2012,06,21,03,47,13.90
2012,06,21,03,48,13.90
2012,06,21,03,49,13.90
2012,06,21,03,50,13.90
2012,06,21,03,51,13.90
2012,06,21,03,52,13.90
2012,06,21,03,53,13.90
2012,06,21,03,54,13.90
2012,06,21,03,55,13.80
2012,06,21,03,56,13.80
2012,06,21,03,57,13.80
2012,06,21,03,58,13.70
2012,06,21,03,59,13.70
2012,06,21,04,00,13.70
2012,06,21,04,01,13.70
2012,06,21,04,02,13.70
2012,06,21,04,03,13.70
2012,06,21,04,04,13.60
2012,06,21,04,05,13.60
2012,06,21,04,06,13.60
2012,06,21,04,07,13.50
2012,06,21,04,08,13.50
2012,06,21,04,09,13.50
2012,06,21,04,10,13.50
2012,06,21,04,11,13.50
2012,06,21,04,12,13.40
2012,06,21,04,13,13.40
2012,06,21,04,14,13.40
2012,06,21,04,15,13.40
2012,06,21,04,16,13.40
2012,06,21,04,17,13.40
2012,06,21,04,18,13.40
2012,06,21,04,19,13.40
2012,06,21,04,20,13.40
2012,06,21,04,21,13.40
2012,06,21,04,22,13.40
2012,06,21,04,23,13.40
2012,06,21,04,24,13.40
2012,06,21,04,25,13.40
2012,06,21,04,26,13.30
2012,06,21,04,27,13.30
2012,06,21,04,28,13.30
2012,06,21,04,29,13.30
2012,06,21,04,30,13.30
2012,06,21,04,31,13.30
2012,06,21,04,32,13.30
2012,06,21,04,33,13.30
2012,06,21,04,34,13.30
2012,06,21,04,35,13.20
2012,06,21,04,36,13.20
2012,06,21,04,37,13.20
2012,06,21,04,38,13.20
2012,06,21,04,39,13.10
2012,06,21,04,40,13.10
2012,06,21,04,41,13.10
2012,06,21,04,42,13.10
2012,06,21,04,43,13.10
2012,06,21,04,44,13.00
2012,06,21,04,45,13.00
2012,06,21,04,46,13.00
2012,06,21,04,47,13.00
2012,06,21,04,48,12.90
2012,06,21,04,49,12.90
2012,06,21,04,50,12.90
2012,06,21,04,51,12.90
2012,06,21,04,52,12.80
2012,06,21,04,53,12.80
2012,06,21,04,54,12.80
2012,06,21,04,55,12.80
2012,06,21,04,56,12.80
2012,06,21,04,57,12.80
2012,06,21,04,58,12.80
2012,06,21,04,59,12.80
2012,06,21,05,00,12.70
2012,06,21,05,01,12.70
2012,06,21,05,02,12.70
2012,06,21,05,03,12.70
2012,06,21,05,04,12.70
2012,06,21,05,05,12.60
2012,06,21,05,06,12.60
2012,06,21,05,07,12.60
2012,06,21,05,08,12.60
2012,06,21,05,09,12.60
2012,06,21,05,10,12.60
2012,06,21,05,11,12.60
2012,06,21,05,12,12.50
2012,06,21,05,13,12.50
2012,06,21,05,14,12.50
2012,06,21,05,15,12.50
2012,06,21,05,16,12.50
2012,06,21,05,17,12.50
2012,06,21,05,18,12.40
2012,06,21,05,19,12.40
2012,06,21,05,20,12.40
2012,06,21,05,21,12.40
2012,06,21,05,22,12.40
2012,06,21,05,23,12.40
2012,06,21,05,24,12.30
2012,06,21,05,25,12.30
2012,06,21,05,26,12.30
2012,06,21,05,27,12.30
2012,06,21,05,28,12.30
2012,06,21,05,29,12.30
2012,06,21,05,30,12.30
2012,06,21,05,31,12.30
2012,06,21,05,32,12.30
2012,06,21,05,33,12.30
2012,06,21,05,34,12.30
2012,06,21,05,35,12.30
2012,06,21,05,36,12.30
2012,06,21,05,37,12.30
2012,06,21,05,38,12.30
2012,06,21,05,39,12.30
2012,06,21,05,40,12.30
2012,06,21,05,41,12.30
2012,06,21,05,42,12.30
2012,06,21,05,43,12.30
2012,06,21,05,44,12.30
2012,06,21,05,45,12.30
2012,06,21,05,46,12.30
2012,06,21,05,47,12.30
2012,06,21,05,48,12.30
2012,06,21,05,49,12.30
2012,06,21,05,50,12.30
2012,06,21,05,51,12.30
2012,06,21,05,52,12.30
2012,06,21,05,53,12.30
2012,06,21,05,54,12.30
2012,06,21,05,55,12.30
2012,06,21,05,56,12.30
2012,06,21,05,57,12.30
2012,06,21,05,58,12.30
2012,06,21,05,59,12.30
2012,06,21,06,00,12.30
2012,06,21,06,01,12.30
2012,06,21,06,02,12.30
2012,06,21,06,03,12.30
2012,06,21,06,04,12.30
2012,06,21,06,05,12.30
2012,06,21,06,06,12.30
2012,06,21,06,07,12.30
2012,06,21,06,08,12.30
2012,06,21,06,09,12.30
2012,06,21,06,10,12.30
2012,06,21,06,11,12.30
2012,06,21,06,12,12.30
2012,06,21,06,13,12.30
2012,06,21,06,14,12.30
2012,06,21,06,15,12.30
2012,06,21,06,16,12.30
2012,06,21,06,17,12.30
2012,06,21,06,18,12.40
2012,06,21,06,19,12.40
2012,06,21,06,20,12.40
2012,06,21,06,21,12.40
2012,06,21,06,22,12.40
2012,06,21,06,23,12.40
2012,06,21,06,24,12.40
2012,06,21,06,25,12.50
2012,06,21,06,26,12.50
2012,06,21,06,27,12.50
2012,06,21,06,28,12.50
2012,06,21,06,29,12.50
2012,06,21,06,30,12.50
2012,06,21,06,31,12.60
2012,06,21,06,32,12.60
2012,06,21,06,33,12.60
2012,06,21,06,34,12.60
2012,06,21,06,35,12.60
2012,06,21,06,36,12.70
2012,06,21,06,37,12.70
2012,06,21,06,38,12.70
2012,06,21,06,39,12.70
2012,06,21,06,40,12.80
2012,06,21,06,41,12.80
2012,06,21,06,42,12.80
2012,06,21,06,43,12.80
2012,06,21,06,44,12.80
2012,06,21,06,45,12.90
2012,06,21,06,46,12.90
2012,06,21,06,47,13.00
2012,06,21,06,48,13.00
2012,06,21,06,49,13.10
2012,06,21,06,50,13.10
2012,06,21,06,51,13.20
2012,06,21,06,52,13.20
2012,06,21,06,53,13.20
2012,06,21,06,54,13.30
2012,06,21,06,55,13.30
2012,06,21,06,56,13.30
2012,06,21,06,57,13.30
2012,06,21,06,58,13.30
2012,06,21,06,59,13.40
2012,06,21,07,00,13.40
2012,06,21,07,01,13.40
2012,06,21,07,02,13.50
2012,06,21,07,03,13.50
2012,06,21,07,04,13.50
2012,06,21,07,05,13.60
2012,06,21,07,06,13.60
2012,06,21,07,07,13.70
2012,06,21,07,08,13.70
2012,06,21,07,09,13.70
2012,06,21,07,10,13.70
2012,06,21,07,11,13.80
2012,06,21,07,12,13.80
2012,06,21,07,13,13.90
2012,06,21,07,14,13.90
2012,06,21,07,15,14.00
2012,06,21,07,16,14.00
2012,06,21,07,17,14.10
2012,06,21,07,18,14.10
2012,06,21,07,19,14.20
2012,06,21,07,20,14.20
2012,06,21,07,21,14.20
2012,06,21,07,22,14.30
2012,06,21,07,23,14.30
2012,06,21,07,24,14.40
2012,06,21,07,25,14.40
2012,06,21,07,26,14.50
2012,06,21,07,27,14.50
2012,06,21,07,28,14.60
2012,06,21,07,29,14.60
2012,06,21,07,30,14.70
2012,06,21,07,31,14.70
2012,06,21,07,32,14.70
2012,06,21,07,33,14.80
2012,06,21,07,34,14.80
2012,06,21,07,35,14.80
2012,06,21,07,36,14.80
2012,06,21,07,37,14.90
2012,06,21,07,38,14.90
2012,06,21,07,39,14.90
2012,06,21,07,40,15.00
2012,06,21,07,41,15.00
2012,06,21,07,42,15.10
2012,06,21,07,43,15.10
2012,06,21,07,44,15.20
2012,06,21,07,45,15.30
2012,06,21,07,46,15.30
2012,06,21,07,47,15.30
2012,06,21,07,48,15.30
2012,06,21,07,49,15.30
2012,06,21,07,50,15.30
2012,06,21,07,51,15.40
2012,06,21,07,52,15.40
2012,06,21,07,53,15.50
2012,06,21,07,54,15.50
2012,06,21,07,55,15.50
2012,06,21,07,56,15.60
2012,06,21,07,57,15.60
2012,06,21,07,58,15.70
2012,06,21,07,59,15.70
2012,06,21,08,00,15.70
2012,06,21,08,01,15.80
2012,06,21,08,02,15.80
2012,06,21,08,03,15.80
2012,06,21,08,04,15.80
2012,06,21,08,05,15.80
2012,06,21,08,06,15.80
2012,06,21,08,07,15.80
2012,06,21,08,08,15.90
2012,06,21,08,09,15.90
2012,06,21,08,10,16.00
2012,06,21,08,11,16.10
2012,06,21,08,12,16.10
2012,06,21,08,13,16.10
2012,06,21,08,14,16.10
2012,06,21,08,15,16.10
2012,06,21,08,16,16.20
2012,06,21,08,17,16.20
2012,06,21,08,18,16.20
2012,06,21,08,19,16.30
2012,06,21,08,20,16.30
2012,06,21,08,21,16.40
2012,06,21,08,22,16.40
2012,06,21,08,23,16.50
2012,06,21,08,24,16.70
2012,06,21,08,25,16.70
2012,06,21,08,26,16.80
2012,06,21,08,27,16.90
2012,06,21,08,28,16.90
2012,06,21,08,29,17.00
2012,06,21,08,30,17.10
2012,06,21,08,31,17.20
2012,06,21,08,32,17.30
2012,06,21,08,33,17.40
2012,06,21,08,34,17.50
2012,06,21,08,35,17.60
2012,06,21,08,36,17.60
2012,06,21,08,37,17.70
2012,06,21,08,38,17.70
2012,06,21,08,39,17.70
2012,06,21,08,40,17.70
2012,06,21,08,41,17.80
2012,06,21,08,42,17.90
2012,06,21,08,43,18.00
2012,06,21,08,44,18.10
2012,06,21,08,45,17.90
2012,06,21,08,46,17.70
2012,06,21,08,47,17.50
2012,06,21,08,48,17.30
2012,06,21,08,49,17.10
2012,06,21,08,50,17.00
2012,06,21,08,51,16.90
2012,06,21,08,52,16.80
2012,06,21,08,53,16.90
2012,06,21,08,54,16.90
2012,06,21,08,55,17.00
2012,06,21,08,56,17.10
2012,06,21,08,57,17.20
2012,06,21,08,58,17.20
2012,06,21,08,59,17.30
2012,06,21,09,00,17.40
2012,06,21,09,01,17.50
2012,06,21,09,02,17.60
2012,06,21,09,03,17.70
2012,06,21,09,04,17.70
2012,06,21,09,05,17.70
2012,06,21,09,06,17.70
2012,06,21,09,07,17.70
2012,06,21,09,08,17.60
2012,06,21,09,09,17.60
2012,06,21,09,10,17.50
2012,06,21,09,11,17.40
2012,06,21,09,12,17.30
2012,06,21,09,13,17.30
2012,06,21,09,14,17.30
2012,06,21,09,15,17.30
2012,06,21,09,16,17.30
2012,06,21,09,17,17.30
2012,06,21,09,18,17.30
2012,06,21,09,19,17.30
2012,06,21,09,20,17.30
2012,06,21,09,21,17.20
2012,06,21,09,22,17.20
2012,06,21,09,23,17.30
2012,06,21,09,24,17.30
2012,06,21,09,25,17.30
2012,06,21,09,26,17.30
2012,06,21,09,27,17.40
2012,06,21,09,28,17.40
2012,06,21,09,29,17.50
2012,06,21,09,30,17.60
2012,06,21,09,31,17.60
2012,06,21,09,32,17.70
2012,06,21,09,33,17.70
2012,06,21,09,34,17.80
2012,06,21,09,35,17.90
2012,06,21,09,36,17.90
2012,06,21,09,37,17.90
2012,06,21,09,38,17.90
2012,06,21,09,39,17.90
2012,06,21,09,40,17.70
2012,06,21,09,41,17.50
2012,06,21,09,42,17.40
2012,06,21,09,43,17.40
2012,06,21,09,44,17.30
2012,06,21,09,45,17.30
2012,06,21,09,46,17.30
2012,06,21,09,47,17.40
2012,06,21,09,48,17.40
2012,06,21,09,49,17.50
2012,06,21,09,50,17.70
2012,06,21,09,51,17.70
2012,06,21,09,52,17.80
2012,06,21,09,53,17.90
2012,06,21,09,54,17.90
2012,06,21,09,55,17.90
2012,06,21,09,56,17.90
2012,06,21,09,57,17.90
2012,06,21,09,58,18.00
2012,06,21,09,59,18.10
2012,06,21,10,00,18.10
2012,06,21,10,01,18.10
2012,06,21,10,02,18.10
2012,06,21,10,03,17.90
2012,06,21,10,04,17.90
2012,06,21,10,05,17.90
2012,06,21,10,06,17.90
2012,06,21,10,07,17.90
2012,06,21,10,08,17.90
2012,06,21,10,09,17.90
2012,06,21,10,10,17.90
2012,06,21,10,11,17.90
2012,06,21,10,12,18.00
2012,06,21,10,13,18.10
2012,06,21,10,14,18.10
2012,06,21,10,15,18.10
2012,06,21,10,16,18.10
2012,06,21,10,17,18.20
2012,06,21,10,18,18.20
2012,06,21,10,19,18.30
2012,06,21,10,20,18.40
2012,06,21,10,21,18.40
2012,06,21,10,22,18.20
2012,06,21,10,23,18.00
2012,06,21,10,24,17.90
2012,06,21,10,25,17.80
2012,06,21,10,26,17.60
2012,06,21,10,27,17.60
2012,06,21,10,28,17.60
2012,06,21,10,29,17.70
2012,06,21,10,30,17.70
2012,06,21,10,31,17.70
2012,06,21,10,32,17.80
2012,06,21,10,33,17.90
2012,06,21,10,34,18.00
2012,06,21,10,35,18.00
2012,06,21,10,36,17.90
2012,06,21,10,37,17.90
2012,06,21,10,38,17.90
2012,06,21,10,39,17.80
2012,06,21,10,40,17.70
2012,06,21,10,41,17.60
2012,06,21,10,42,17.50
2012,06,21,10,43,17.40
2012,06,21,10,44,17.30
2012,06,21,10,45,17.40
2012,06,21,10,46,17.40
2012,06,21,10,47,17.50
2012,06,21,10,48,17.60
2012,06,21,10,49,17.70
2012,06,21,10,50,17.80
2012,06,21,10,51,17.90
2012,06,21,10,52,17.90
2012,06,21,10,53,18.10
2012,06,21,10,54,18.20
2012,06,21,10,55,18.30
2012,06,21,10,56,18.40
2012,06,21,10,57,18.60
2012,06,21,10,58,18.70
2012,06,21,10,59,18.80
2012,06,21,11,00,18.90
2012,06,21,11,01,19.00
2012,06,21,11,02,19.10
2012,06,21,11,03,19.10
2012,06,21,11,04,19.10
2012,06,21,11,05,19.10
2012,06,21,11,06,19.00
2012,06,21,11,07,18.90
2012,06,21,11,08,18.70
2012,06,21,11,09,18.60
2012,06,21,11,10,18.40
2012,06,21,11,11,18.30
2012,06,21,11,12,18.20
2012,06,21,11,13,18.20
2012,06,21,11,14,18.20
2012,06,21,11,15,18.20
2012,06,21,11,16,18.30
2012,06,21,11,17,18.40
2012,06,21,11,18,18.40
2012,06,21,11,19,18.30
2012,06,21,11,20,18.20
2012,06,21,11,21,18.20
2012,06,21,11,22,18.20
2012,06,21,11,23,18.30
2012,06,21,11,24,18.40
2012,06,21,11,25,18.60
2012,06,21,11,26,18.70
2012,06,21,11,27,18.70
2012,06,21,11,28,18.70
2012,06,21,11,29,18.70
2012,06,21,11,30,18.90
2012,06,21,11,31,18.90
2012,06,21,11,32,18.90
2012,06,21,11,33,18.70
2012,06,21,11,34,18.50
2012,06,21,11,35,18.40
2012,06,21,11,36,18.20
2012,06,21,11,37,18.10
2012,06,21,11,38,17.90
2012,06,21,11,39,17.90
2012,06,21,11,40,17.90
2012,06,21,11,41,18.00
2012,06,21,11,42,18.10
2012,06,21,11,43,18.10
2012,06,21,11,44,18.10
2012,06,21,11,45,18.20
2012,06,21,11,46,18.20
2012,06,21,11,47,18.10
2012,06,21,11,48,17.90
2012,06,21,11,49,17.90
2012,06,21,11,50,17.60
2012,06,21,11,51,17.60
2012,06,21,11,52,17.70
2012,06,21,11,53,17.70
2012,06,21,11,54,17.60
2012,06,21,11,55,17.60
2012,06,21,11,56,17.50
2012,06,21,11,57,17.50
2012,06,21,11,58,17.40
2012,06,21,11,59,17.40
2012,06,21,12,00,17.50
2012,06,21,12,01,17.40
2012,06,21,12,02,17.40
2012,06,21,12,03,17.30
2012,06,21,12,04,17.20
2012,06,21,12,05,17.10
2012,06,21,12,06,17.10
2012,06,21,12,07,17.10
2012,06,21,12,08,17.10
2012,06,21,12,09,17.10
2012,06,21,12,10,17.10
2012,06,21,12,11,17.10
2012,06,21,12,12,17.00
2012,06,21,12,13,17.00
2012,06,21,12,14,17.10
2012,06,21,12,15,17.10
2012,06,21,12,16,17.30
2012,06,21,12,17,17.40
2012,06,21,12,18,17.50
2012,06,21,12,19,17.60
2012,06,21,12,20,17.70
2012,06,21,12,21,17.70
2012,06,21,12,22,17.80
2012,06,21,12,23,17.90
2012,06,21,12,24,17.90
2012,06,21,12,25,17.90
2012,06,21,12,26,17.90
2012,06,21,12,27,17.90
2012,06,21,12,28,17.90
2012,06,21,12,29,17.90
2012,06,21,12,30,17.90
2012,06,21,12,31,17.90
2012,06,21,12,32,17.80
2012,06,21,12,33,17.90
2012,06,21,12,34,17.90
2012,06,21,12,35,18.00
2012,06,21,12,36,18.10
2012,06,21,12,37,18.20
2012,06,21,12,38,18.30
2012,06,21,12,39,18.30
2012,06,21,12,40,18.20
2012,06,21,12,41,18.30
2012,06,21,12,42,18.40
2012,06,21,12,43,18.50
2012,06,21,12,44,18.50
2012,06,21,12,45,18.60
2012,06,21,12,46,18.60
2012,06,21,12,47,18.60
2012,06,21,12,48,18.50
2012,06,21,12,49,18.50
2012,06,21,12,50,18.50
2012,06,21,12,51,18.50
2012,06,21,12,52,18.50
2012,06,21,12,53,18.60
2012,06,21,12,54,18.60
2012,06,21,12,55,18.70
2012,06,21,12,56,18.80
2012,06,21,12,57,18.90
2012,06,21,12,58,19.10
2012,06,21,12,59,19.10
2012,06,21,13,00,19.20
2012,06,21,13,01,19.20
2012,06,21,13,02,19.20
2012,06,21,13,03,19.20
2012,06,21,13,04,19.20
2012,06,21,13,05,19.30
2012,06,21,13,06,19.40
2012,06,21,13,07,19.40
2012,06,21,13,08,19.40
2012,06,21,13,09,19.40
2012,06,21,13,10,19.40
2012,06,21,13,11,19.30
2012,06,21,13,12,19.20
2012,06,21,13,13,19.20
2012,06,21,13,14,19.30
2012,06,21,13,15,19.30
2012,06,21,13,16,19.30
2012,06,21,13,17,19.40
2012,06,21,13,18,19.40
2012,06,21,13,19,19.30
2012,06,21,13,20,19.20
2012,06,21,13,21,19.30
2012,06,21,13,22,19.40
2012,06,21,13,23,19.40
2012,06,21,13,24,19.60
2012,06,21,13,25,19.60
2012,06,21,13,26,19.70
2012,06,21,13,27,19.80
2012,06,21,13,28,19.70
2012,06,21,13,29,19.80
2012,06,21,13,30,19.80
2012,06,21,13,31,19.90
2012,06,21,13,32,19.80
2012,06,21,13,33,19.70
2012,06,21,13,34,19.50
2012,06,21,13,35,19.50
2012,06,21,13,36,19.50
2012,06,21,13,37,19.50
2012,06,21,13,38,19.50
2012,06,21,13,39,19.50
2012,06,21,13,40,19.40
2012,06,21,13,41,19.40
2012,06,21,13,42,19.40
2012,06,21,13,43,19.30
2012,06,21,13,44,19.20
2012,06,21,13,45,19.10
2012,06,21,13,46,19.00
2012,06,21,13,47,18.90
2012,06,21,13,48,18.90
2012,06,21,13,49,19.10
2012,06,21,13,50,19.10
2012,06,21,13,51,19.10
2012,06,21,13,52,19.10
2012,06,21,13,53,19.20
2012,06,21,13,54,19.20
2012,06,21,13,55,19.20
2012,06,21,13,56,19.30
2012,06,21,13,57,19.30
2012,06,21,13,58,19.40
2012,06,21,13,59,19.40
2012,06,21,14,00,19.20
2012,06,21,14,01,19.10
2012,06,21,14,02,19.10
2012,06,21,14,03,19.10
2012,06,21,14,04,19.10
2012,06,21,14,05,19.30
2012,06,21,14,06,19.30
2012,06,21,14,07,19.40
2012,06,21,14,08,19.40
2012,06,21,14,09,19.50
2012,06,21,14,10,19.60
2012,06,21,14,11,19.60
2012,06,21,14,12,19.70
2012,06,21,14,13,19.70
2012,06,21,14,14,19.70
2012,06,21,14,15,19.70
2012,06,21,14,16,19.70
2012,06,21,14,17,19.70
2012,06,21,14,18,19.70
2012,06,21,14,19,19.70
2012,06,21,14,20,19.70
2012,06,21,14,21,19.80
2012,06,21,14,22,19.90
2012,06,21,14,23,19.90
2012,06,21,14,24,20.00
2012,06,21,14,25,20.10
2012,06,21,14,26,20.20
2012,06,21,14,27,20.20
2012,06,21,14,28,20.20
2012,06,21,14,29,20.30
2012,06,21,14,30,20.40
2012,06,21,14,31,20.40
2012,06,21,14,32,20.30
2012,06,21,14,33,20.30
2012,06,21,14,34,20.30
2012,06,21,14,35,20.30
2012,06,21,14,36,20.20
2012,06,21,14,37,20.20
2012,06,21,14,38,20.30
2012,06,21,14,39,20.30
2012,06,21,14,40,20.20
2012,06,21,14,41,20.20
2012,06,21,14,42,20.20
2012,06,21,14,43,20.20
2012,06,21,14,44,20.20
2012,06,21,14,45,20.20
2012,06,21,14,46,20.20
2012,06,21,14,47,20.20
2012,06,21,14,48,20.20
2012,06,21,14,49,20.10
2012,06,21,14,50,19.90
2012,06,21,14,51,19.80
2012,06,21,14,52,19.80
2012,06,21,14,53,19.70
2012,06,21,14,54,19.70
2012,06,21,14,55,19.80
2012,06,21,14,56,19.90
2012,06,21,14,57,19.90
2012,06,21,14,58,19.90
2012,06,21,14,59,20.10
2012,06,21,15,00,20.10
2012,06,21,15,01,20.20
2012,06,21,15,02,20.20
2012,06,21,15,03,20.20
2012,06,21,15,04,20.30
2012,06,21,15,05,20.30
2012,06,21,15,06,20.30
2012,06,21,15,07,20.40
2012,06,21,15,08,20.50
2012,06,21,15,09,20.60
2012,06,21,15,10,20.80
2012,06,21,15,11,20.90
2012,06,21,15,12,20.90
2012,06,21,15,13,20.90
2012,06,21,15,14,20.90
2012,06,21,15,15,20.90
2012,06,21,15,16,21.00
2012,06,21,15,17,21.00
2012,06,21,15,18,21.00
2012,06,21,15,19,21.10
2012,06,21,15,20,21.20
2012,06,21,15,21,21.10
2012,06,21,15,22,21.10
2012,06,21,15,23,21.10
2012,06,21,15,24,21.00
2012,06,21,15,25,21.00
2012,06,21,15,26,20.90
2012,06,21,15,27,20.90
2012,06,21,15,28,20.90
2012,06,21,15,29,20.80
2012,06,21,15,30,20.70
2012,06,21,15,31,20.50
2012,06,21,15,32,20.40
2012,06,21,15,33,20.40
2012,06,21,15,34,20.20
2012,06,21,15,35,20.20
2012,06,21,15,36,20.20
2012,06,21,15,37,20.10
2012,06,21,15,38,20.10
2012,06,21,15,39,20.10
2012,06,21,15,40,20.10
2012,06,21,15,41,20.20
2012,06,21,15,42,20.20
2012,06,21,15,43,20.20
2012,06,21,15,44,20.20
2012,06,21,15,45,20.20
2012,06,21,15,46,20.20
2012,06,21,15,47,20.30
2012,06,21,15,48,20.40
2012,06,21,15,49,20.50
2012,06,21,15,50,20.60
2012,06,21,15,51,20.70
2012,06,21,15,52,20.80
2012,06,21,15,53,20.70
2012,06,21,15,54,20.70
2012,06,21,15,55,20.60
2012,06,21,15,56,20.50
2012,06,21,15,57,20.40
2012,06,21,15,58,20.30
2012,06,21,15,59,20.40
2012,06,21,16,00,20.40
2012,06,21,16,01,20.40
2012,06,21,16,02,20.40
2012,06,21,16,03,20.40
2012,06,21,16,04,20.50
2012,06,21,16,05,20.60
2012,06,21,16,06,20.60
2012,06,21,16,07,20.60
2012,06,21,16,08,20.60
2012,06,21,16,09,20.70
2012,06,21,16,10,20.70
2012,06,21,16,11,20.70
2012,06,21,16,12,20.70
2012,06,21,16,13,20.80
2012,06,21,16,14,20.80
2012,06,21,16,15,20.80
2012,06,21,16,16,20.80
2012,06,21,16,17,20.70
2012,06,21,16,18,20.70
2012,06,21,16,19,20.60
2012,06,21,16,20,20.60
2012,06,21,16,21,20.50
2012,06,21,16,22,20.60
2012,06,21,16,23,20.60
2012,06,21,16,24,20.60
2012,06,21,16,25,20.60
2012,06,21,16,26,20.60
2012,06,21,16,27,20.60
2012,06,21,16,28,20.50
2012,06,21,16,29,20.40
2012,06,21,16,30,20.40
2012,06,21,16,31,20.40
2012,06,21,16,32,20.40
2012,06,21,16,33,20.40
2012,06,21,16,34,20.40
2012,06,21,16,35,20.30
2012,06,21,16,36,20.30
2012,06,21,16,37,20.30
2012,06,21,16,38,20.30
2012,06,21,16,39,20.30
2012,06,21,16,40,20.30
2012,06,21,16,41,20.30
2012,06,21,16,42,20.20
2012,06,21,16,43,20.20
2012,06,21,16,44,20.20
2012,06,21,16,45,20.20
2012,06,21,16,46,20.20
2012,06,21,16,47,20.20
2012,06,21,16,48,20.20
2012,06,21,16,49,20.20
2012,06,21,16,50,20.10
2012,06,21,16,51,20.10
2012,06,21,16,52,20.10
2012,06,21,16,53,20.10
2012,06,21,16,54,20.10
2012,06,21,16,55,20.10
2012,06,21,16,56,20.20
2012,06,21,16,57,20.20
2012,06,21,16,58,20.10
2012,06,21,16,59,20.10
2012,06,21,17,00,20.10
2012,06,21,17,01,20.10
2012,06,21,17,02,20.10
2012,06,21,17,03,20.10
2012,06,21,17,04,20.10
2012,06,21,17,05,20.20
2012,06,21,17,06,20.20
2012,06,21,17,07,20.20
2012,06,21,17,08,20.10
2012,06,21,17,09,20.10
2012,06,21,17,10,20.10
2012,06,21,17,11,19.90
2012,06,21,17,12,19.90
2012,06,21,17,13,19.90
2012,06,21,17,14,19.90
2012,06,21,17,15,19.90
2012,06,21,17,16,19.90
2012,06,21,17,17,19.90
2012,06,21,17,18,19.90
2012,06,21,17,19,19.90